522  
ASUS41 KLWX 181211  
RWRLWX  
 
REGIONAL WEATHER ROUNDUP  
NATIONAL WEATHER SERVICE BALTIMORE MD/WASHINGTON DC  
800 AM EDT THU APR 18 2019  
 
NOTE: "FAIR" INDICATES FEW OR NO CLOUDS BELOW 12,000 FEET  
WITH NO SIGNIFICANT WEATHER AND/OR S TO VISIBILITY
.  
TC=TEMPERATURE CELSIUS  
 
* =NON NWS SITE. STATION DOES NOT REPORT PRECIPITATION (E.G. RAIN,  
SNOW, ETC.), THUNDER, OR FOG.
 
 
DCZ001-MDZ009-015-VAZ040>042-051-053>054-181300-  
WASHINGTON METRO  
 
CITY SKY/WX TMP DP RH WIND PRES REMARKS
 
WASHINGTON NAT CLOUDY 57 51 80 NE7 30.04R  
DULLES CLOUDY 55 50 83 E5 30.03S  
ANDREWS AFB CLOUDY 54 52 91 NE5 30.03S  
FT BELVOIR CLOUDY 56 51 85 CALM 30.03S  
QUANTICO CLOUDY 58 54 86 E6 30.04S  
COLLEGE PARK* CLOUDY 55 51 87 CALM 30.04S  
LEESBURG* CLOUDY 54 52 94 CALM 30.05S  
MANASSAS* CLOUDY 55 52 89 E3 30.03R  
GAITHERSBURG* CLOUDY 54 51 90 E3 N/A  
 

 
 
MDZ006>007-011-014-181300-  
BALTIMORE METRO  
 
CITY SKY/WX TMP DP RH WIND PRES REMARKS
 
BWI AIRPORT CLOUDY 55 53 93 E5 30.04R FOG  
MD SCIENCE CTR N/A 57 52 83 MISG 30.05R  
MARTIN STATE CLOUDY 57 55 94 CALM 30.06R  
ANNAPOLIS CLOUDY 58 52 80 CALM 30.04R  
ABERDEEN* CLOUDY 55 54 94 SE7 30.06S  
FORT MEADE* CLOUDY 54 52 94 NE3 30.06F  
 

 
 
MDZ012-015-019>023-181300-  
MARYLAND EASTERN SHORE  
 
CITY SKY/WX TMP DP RH WIND PRES REMARKS
 
OCEAN CITY FAIR 55 53 93 S5 30.05R  
SALISBURY FAIR 58 56 93 S5 30.04R  
BAY BRIDGE AP* CLOUDY 55 55 100 CALM 30.04S  
CAMBRIDGE* SUNNY 55 55 100 CALM 30.03S  
EASTON* PTSUNNY 57 55 94 E5 30.06S  
 

 
 
MDZ017>025-181300-  
SOUTHERN MARYLAND  
 
CITY SKY/WX TMP DP RH WIND PRES REMARKS
 
PATUXENT RIVER PTSUNNY 58 58 100 SE5 30.02R  
ST INIGOES FAIR 59 58 96 E5 30.02R  
LEONARDTOWN* PTSUNNY 55 55 100 CALM 30.04S  
 

 
 
MDZ003>005-181300-  
NORTH CENTRAL MARYLAND  
 
CITY SKY/WX TMP DP RH WIND PRES REMARKS
 
FREDERICK* CLOUDY 55 52 88 CALM 30.06F  
HAGERSTOWN APT FAIR 53 48 83 CALM 30.03R  
 

 
 
MDZ501>502-181300-  
WESTERN MARYLAND  
 
CITY SKY/WX TMP DP RH WIND PRES REMARKS
 
OAKLAND* FAIR 46 43 87 S10 29.97S  
CUMBERLAND* CLOUDY 51 47 87 CALM 30.06S  
 

 
 
VAZ025>031-181300-  
SHENANDOAH VALLEY  
 
CITY SKY/WX TMP DP RH WIND PRES REMARKS
 
WINCHESTER* FAIR 50 46 87 CALM 30.04R  
FRONT ROYAL* FAIR 50 46 87 NW3 30.01R  
LURAY* PTSUNNY 52 48 87 CALM 30.01S  
NEW MARKET* FAIR 50 46 88 CALM 30.01S  
STAUNTON* PTSUNNY 52 49 90 CALM 30.03R  
WAYNESBORO* CLOUDY 54 48 81 CALM 30.01R  
 

 
 
WVZ021-048>050-054>055-181300-  
EASTERN WEST VIRGINIA PANHANDLE  
 
CITY SKY/WX TMP DP RH WIND PRES REMARKS
 
MARTINSBURG FAIR 53 49 86 CALM 30.01F  
PETERSBURG* PTSUNNY 48 46 93 CALM 30.02R  
 

 
 
VAZ036>039-050-181300-  
CENTRAL FOOTHILLS  
 
CITY SKY/WX TMP DP RH WIND PRES REMARKS
 
CHARLOTTESVILL FAIR 55 48 77 CALM 30.02R  
CULPEPER* CLOUDY 54 49 85 CALM 30.04S  
ORANGE* CLOUDY 52 46 82 CALM 30.03R  
GORDONSVILLE* CLOUDY 53 52 97 CALM 30.03R  
WARRENTON* CLOUDY 55 49 81 CALM 30.03S  
 

 
 
VAZ055>057-181300-  
NORTH AND CENTRAL PIEDMONT  
 
CITY SKY/WX TMP DP RH WIND PRES REMARKS
 
FREDERICKSBRG* CLOUDY 55 55 100 NE3 30.03R  
STAFFORD* CLOUDY 56 56 100 E6 30.07R  
 

 
 
NCZ024-NYZ072-PAZ021-071-VAZ022-071-181300-  
OTHER REGIONAL OBSERVATIONS  
 
CITY SKY/WX TMP DP RH WIND PRES REMARKS
 
NEW YORK CITY CLOUDY 54 37 52 VRB3 30.17F  
PHILADELPHIA CLOUDY 57 49 74 E10 30.08S  
PITTSBURGH CLOUDY 61 45 55 SE5 29.84R  
ROANOKE CLOUDY 57 49 74 S5 30.05R  
RICHMOND PTSUNNY 54 51 90 CALM 30.03R  
RALEIGH CLOUDY 61 55 81 SW7 30.05R  
 

 
 
ANZ530>537-181300-  
MARINE OBSERVATIONS  
 
STATION/POSITION TIME TEMP WIND PRES
 
AIR SEA DIR/SP/G  
(UTC) (F) (DEG/KT/KT) (MB)  
THOMAS PT LIGHT 1200 55 55 350/ 2/ 3 1018.1R  
BALT KEY BRIDGE 1148 56 110/ 6/ 7 1017.2R  
COVE POINT 1148 56 170/ 2/ 3 1017.4R  
LEWISETTA 1136 58 60 200/ 2/ 2 1016.6R  
SOLOMONS ISLAND 1136 58 56 100/ 5/ 5 1016.2R  
PINEY POINT 1136 140/ 5/ 6 N/A  
 

 
 
 
 
CLICK HERE TO GO TO PREVIOUS BULLETINS.

The Nexlab VA Page
The Nexlab MD Page
The Nexlab WV Page Main Text Page